Location: Proctor
(47.8934°N, 114.3048°W)
Time: 05:21:59
(UTC+00:00)

ISS - Pass Details

Date: 21 May 2024
Orbit: 409 x 421 km, 51.6° (Epoch: 13 June)

Event Time Altitude Azimuth Distance (km) Brightness Sun altitude
Rises 06:26:42 0° 291° (WNW) 2,372 0.6 -20.2°
Reaches altitude 10° 06:28:54 10° 282° (WNW) 1,502 -0.6 -20.3°
Enters shadow 06:30:52 27° 257° (WSW) 849 -2.2 -20.4°
